Location: *
(6.0000°S, 32.3997°W)
Time: 16:55:20
(UTC+00:00)

Cosmos 1242 Rocket - Pass Details

Date: 01 April 2020
Orbit: 449 x 486 km, 81.2° (Epoch: 26 May)

Event Time Altitude Azimuth Distance (km) Brightness Sun altitude
Rises 20:46:28 0° 357° (N) 2,471 6.2 -8.8°
Reaches altitude 10° 20:48:31 10° 359° (N) 1,607 5.3 -9.3°
Maximum altitude 20:52:02 77° 85° (E) 484 2.4 -10.1°
Drops below altitude 10° 20:55:37 10° 171° (S) 1,642 5.1 -11.0°
Sets 20:57:44 0° 172° (S) 2,531 6.1 -11.5°
